QPF
0.00 0.00 0.00 0.01 0.08 0.06 0.00 0.00 0.00 0.00 0.00 0.00 0.00 0.00 0.00 0.00 0.00 0.03 0.01 0.00 0.00 0.00 0.00 0.00 0.00 0.01 0.01 0.01 0.01 0.01 0.02 0.03 0.03 0.03 0.04 0.03 0.03 0.03 0.04 0.03 0.02 0.01 0.01 0.02 0.03 0.04 0.04 0.04 0.05
0.00 0.00 0.01 0.05 0.10 0.02 0.00 0.00 0.00 0.00 0.00 0.00 0.00 0.00 0.00 0.00 0.00 0.00 0.00 0.00 0.00 0.00 0.00 0.01 0.01 0.02 0.02 0.02 0.02 0.03 0.03 0.04 0.04 0.04 0.04 0.04 0.04 0.05 0.06 0.05 0.03 0.01 0.01 0.02 0.04 0.05 0.04 0.03 0.03
0.00 0.00 0.01 0.05 0.04 0.01 0.00 0.00 0.00 0.00 0.00 0.00 0.00 0.00 0.00 0.00 0.00 0.00 0.00 0.00 0.00 0.00 0.00 0.02 0.01 0.02 0.02 0.02 0.02 0.03 0.04 0.03 0.05 0.06 0.06 0.04 0.04 0.04 0.05 0.04 0.04 0.02 0.00 0.01 0.05 0.05 0.04 0.03 0.02
0.00 0.00 0.00 0.02 0.01 0.00 0.00 0.00 0.00 0.00 0.00 0.00 0.00 0.00 0.00 0.00 0.00 0.00 0.00 0.00 0.00 0.00 0.00 0.01 0.01 0.01 0.02 0.02 0.02 0.03 0.03 0.04 0.06 0.08 0.06 0.03 0.03 0.02 0.03 0.03 0.03 0.01 0.01 0.01 0.03 0.04 0.04 0.02 0.01
0.00 0.01 0.03 0.02 0.00 0.00 0.00 0.00 0.00 0.00 0.00 0.00 0.00 0.00 0.00 0.00 0.00 0.00 0.00 0.00 0.00 0.00 0.00 0.00 0.00 0.01 0.01 0.02 0.02 0.02 0.04 0.05 0.08 0.08 0.05 0.02 0.02 0.02 0.03 0.03 0.03 0.01 0.01 0.00 0.01 0.03 0.04 0.02 0.01
0.02 0.02 0.05 0.03 0.00 0.00 0.00 0.00 0.00 0.00 0.00 0.00 0.00 0.00 0.00 0.00 0.00 0.00 0.00 0.00 0.00 0.00 0.00 0.00 0.00 0.01 0.02 0.03 0.03 0.03 0.05 0.07 0.06 0.05 0.03 0.02 0.02 0.02 0.03 0.03 0.01 0.00 0.00 0.00 0.01 0.02 0.03 0.03 0.03
0.08 0.06 0.04 0.01 0.00 0.00 0.00 0.00 0.00 0.00 0.00 0.00 0.00 0.00 0.00 0.00 0.00 0.00 0.00 0.00 0.00 0.00 0.00 0.01 0.01 0.01 0.01 0.02 0.04 0.04 0.06 0.06 0.03 0.02 0.01 0.01 0.01 0.01 0.02 0.01 0.00 0.00 0.00 0.00 0.01 0.01 0.03 0.04 0.03
0.01 0.01 0.01 0.00 0.00 0.00 0.00 0.00 0.00 0.00 0.00 0.00 0.00 0.00 0.00 0.00 0.00 0.00 0.00 0.00 0.00 0.00 0.00 0.00 0.01 0.03 0.06 0.05 0.03 0.05 0.06 0.05 0.02 0.01 0.01 0.01 0.01 0.01 0.01 0.00 0.00 0.00 0.00 0.00 0.01 0.01 0.02 0.02 0.01
0.00 0.01 0.01 0.00 0.00 0.00 0.00 0.00 0.00 0.00 0.00 0.00 0.00 0.00 0.00 0.00 0.00 0.00 0.00 0.00 0.00 0.00 0.00 0.00 0.00 0.01 0.06 0.09 0.04 0.07 0.08 0.05 0.02 0.02 0.01 0.01 0.02 0.01 0.00 0.00 0.00 0.00 0.00 0.00 0.01 0.01 0.01 0.00 0.00
0.00 0.04 0.03 0.01 0.00 0.00 0.00 0.00 0.00 0.00 0.00 0.00 0.00 0.00 0.00 0.00 0.00 0.00 0.00 0.00 0.00 0.00 0.00 0.00 0.00 0.00 0.02 0.09 0.11 0.16 0.16 0.06 0.04 0.03 0.00 0.03 0.03 0.01 0.00 0.00 0.00 0.00 0.00 0.00 0.00 0.00 0.00 0.00 0.00
0.00 0.00 0.01 0.01 0.00 0.00 0.00 0.00 0.00 0.00 0.00 0.00 0.00 0.00 0.00 0.00 0.00 0.00 0.00 0.00 0.00 0.00 0.00 0.00 0.00 0.00 0.01 0.10 0.12 0.12 0.14 0.10 0.10 0.04 0.01 0.03 0.02 0.00 0.00 0.00 0.00 0.00 0.00 0.00 0.00 0.00 0.00 0.00 0.00
0.00 0.00 0.00 0.00 0.00 0.00 0.00 0.00 0.00 0.00 0.00 0.00 0.00 0.00 0.00 0.00 0.00 0.00 0.00 0.00 0.00 0.00 0.00 0.00 0.00 0.00 0.00 0.01 0.03 0.04 0.04 0.03 0.04 0.03 0.00 0.01 0.01 0.00 0.00 0.00 0.00 0.00 0.00 0.01 0.00 0.00 0.00 0.00 0.00
0.00 0.00 0.00 0.00 0.00 0.00 0.00 0.00 0.00 0.00 0.00 0.00 0.00 0.00 0.00 0.00 0.00 0.00 0.00 0.00 0.00 0.00 0.00 0.00 0.00 0.00 0.00 0.00 0.01 0.01 0.02 0.02 0.01 0.02 0.01 0.00 0.00 0.00 0.00 0.00 0.00 0.00 0.00 0.00 0.00 0.00 0.00 0.00 0.00
0.01 0.01 0.00 0.00 0.00 0.00 0.00 0.00 0.00 0.00 0.00 0.00 0.00 0.00 0.00 0.00 0.00 0.00 0.00 0.00 0.00 0.00 0.00 0.00 0.00 0.00 0.00 0.00 0.00 0.00 0.00 0.01 0.01 0.01 0.01 0.00 0.00 0.00 0.00 0.00 0.00 0.00 0.00 0.00 0.00 0.00 0.00 0.00 0.00
0.00 0.00 0.00 0.00 0.00 0.00 0.00 0.00 0.00 0.00 0.00 0.00 0.00 0.00 0.00 0.00 0.00 0.00 0.00 0.00 0.00 0.00 0.00 0.00 0.00 0.00 0.00 0.00 0.00 0.00 0.00 0.00 0.00 0.01 0.00 0.00 0.00 0.00 0.00 0.00 0.00 0.00 0.00 0.00 0.00 0.00 0.00 0.00 0.00
0.00 0.00 0.00 0.00 0.00 0.01 0.00 0.00 0.00 0.00 0.00 0.00 0.00 0.00 0.00 0.00 0.00 0.00 0.00 0.00 0.00 0.00 0.00 0.00 0.00 0.00 0.00 0.00 0.00 0.00 0.00 0.00 0.00 0.00 0.00 0.00 0.00 0.00 0.00 0.00 0.00 0.00 0.00 0.00 0.00 0.00 0.00 0.00 0.00
0.02 0.01 0.01 0.01 0.01 0.01 0.01 0.00 0.00 0.01 0.00 0.00 0.00 0.00 0.00 0.00 0.00 0.00 0.00 0.00 0.00 0.00 0.00 0.00 0.00 0.00 0.00 0.00 0.00 0.00 0.00 0.00 0.01 0.01 0.00 0.00 0.00 0.00 0.00 0.00 0.00 0.00 0.00 0.01 0.00 0.01 0.01 0.02 0.01
0.08 0.05 0.03 0.02 0.03 0.03 0.02 0.01 0.00 0.01 0.00 0.00 0.00 0.00 0.00 0.00 0.00 0.00 0.00 0.00 0.00 0.00 0.00 0.00 0.00 0.00 0.02 0.02 0.03 0.03 0.03 0.03 0.02 0.02 0.01 0.00 0.00 0.00 0.00 0.00 0.00 0.00 0.01 0.02 0.01 0.03 0.04 0.05 0.02
0.03 0.02 0.02 0.03 0.05 0.04 0.03 0.02 0.01 0.01 0.00 0.00 0.00 0.00 0.00 0.00 0.00 0.00 0.00 0.00 0.00 0.00 0.00 0.00 0.00 0.01 0.03 0.09 0.12 0.13 0.15 0.11 0.05 0.02 0.01 0.01 0.00 0.00 0.00 0.00 0.00 0.01 0.03 0.03 0.02 0.07 0.10 0.10 0.03
0.03 0.06 0.07 0.06 0.05 0.04 0.02 0.01 0.01 0.00 0.01 0.01 0.00 0.00 0.00 0.00 0.00 0.00 0.00 0.00 0.00 0.00 0.00 0.00 0.00 0.01 0.02 0.07 0.10 0.11 0.14 0.12 0.09 0.07 0.04 0.03 0.02 0.02 0.01 0.01 0.02 0.03 0.09 0.11 0.11 0.16 0.22 0.16 0.06
0.10 0.13 0.12 0.10 0.05 0.04 0.03 0.01 0.00 0.00 0.00 0.00 0.00 0.00 0.00 0.00 0.00 0.00 0.00 0.00 0.00 0.00 0.00 0.00 0.00 0.00 0.02 0.04 0.07 0.11 0.18 0.20 0.24 0.24 0.17 0.09 0.06 0.07 0.06 0.04 0.03 0.03 0.07 0.15 0.16 0.19 0.27 0.23 0.14
0.09 0.07 0.05 0.05 0.05 0.05 0.04 0.04 0.01 0.00 0.00 0.00 0.00 0.00 0.00 0.00 0.00 0.00 0.00 0.00 0.00 0.00 0.00 0.00 0.00 0.00 0.01 0.03 0.06 0.11 0.14 0.17 0.21 0.20 0.13 0.08 0.08 0.08 0.09 0.09 0.07 0.06 0.09 0.15 0.15 0.14 0.22 0.27 0.25
0.04 0.03 0.03 0.03 0.04 0.05 0.04 0.04 0.01 0.00 0.00 0.00 0.00 0.00 0.00 0.00 0.00 0.00 0.00 0.00 0.00 0.00 0.00 0.00 0.00 0.00 0.00 0.02 0.04 0.07 0.09 0.10 0.11 0.13 0.13 0.12 0.09 0.09 0.14 0.17 0.16 0.11 0.11 0.12 0.11 0.14 0.20 0.21 0.22
0.01 0.01 0.01 0.02 0.03 0.03 0.02 0.03 0.02 0.00 0.00 0.00 0.00 0.00 0.00 0.00 0.00 0.00 0.00 0.00 0.00 0.00 0.00 0.00 0.00 0.00 0.00 0.00 0.01 0.03 0.04 0.04 0.06 0.10 0.16 0.22 0.18 0.14 0.13 0.15 0.17 0.12 0.12 0.12 0.14 0.14 0.19 0.23 0.26
0.00 0.02 0.04 0.04 0.04 0.03 0.01 0.01 0.01 0.00 0.00 0.00 0.00 0.00 0.00 0.00 0.00 0.00 0.00 0.00 0.00 0.00 0.00 0.00 0.00 0.00 0.00 0.00 0.00 0.01 0.01 0.02 0.03 0.05 0.10 0.14 0.16 0.16 0.16 0.15 0.17 0.14 0.12 0.11 0.13 0.14 0.17 0.20 0.27
0.01 0.02 0.05 0.06 0.06 0.04 0.01 0.01 0.00 0.00 0.00 0.00 0.00 0.00 0.00 0.00 0.00 0.00 0.00 0.00 0.00 0.00 0.00 0.00 0.00 0.00 0.00 0.00 0.00 0.00 0.01 0.01 0.01 0.02 0.04 0.08 0.12 0.14 0.14 0.15 0.15 0.15 0.15 0.13 0.13 0.13 0.14 0.16 0.21
0.00 0.00 0.01 0.02 0.02 0.02 0.01 0.00 0.00 0.00 0.00 0.00 0.00 0.00 0.00 0.00 0.00 0.00 0.00 0.00 0.00 0.00 0.00 0.00 0.00 0.00 0.00 0.00 0.00 0.00 0.00 0.00 0.00 0.01 0.02 0.04 0.06 0.06 0.06 0.09 0.12 0.13 0.15 0.16 0.15 0.15 0.15 0.15 0.17
0.00 0.00 0.01 0.04 0.07 0.06 0.03 0.02 0.03 0.02 0.02 0.01 0.01 0.01 0.02 0.02 0.02 0.01 0.01 0.01 0.00 0.00 0.00 0.00 0.00 0.00 0.00 0.00 0.00 0.00 0.00 0.00 0.00 0.01 0.02 0.02 0.03 0.04 0.04 0.06 0.11 0.14 0.15 0.15 0.15 0.16 0.15 0.14 0.16
0.03 0.04 0.04 0.07 0.07 0.10 0.11 0.09 0.06 0.07 0.06 0.05 0.04 0.04 0.05 0.05 0.05 0.05 0.04 0.03 0.02 0.00 0.00 0.00 0.00 0.00 0.00 0.00 0.00 0.00 0.00 0.00 0.00 0.01 0.01 0.01 0.02 0.03 0.04 0.06 0.09 0.12 0.14 0.15 0.15 0.17 0.17 0.17 0.16
0.03 0.06 0.10 0.20 0.19 0.17 0.17 0.14 0.09 0.07 0.07 0.05 0.03 0.04 0.05 0.06 0.06 0.07 0.09 0.05 0.02 0.00 0.00 0.00 0.00 0.00 0.00 0.00 0.00 0.00 0.00 0.00 0.00 0.00 0.00 0.00 0.01 0.01 0.01 0.04 0.05 0.08 0.10 0.11 0.12 0.11 0.12 0.15 0.19
MSLP
1004.30 1004.97 1005.84 1006.78 1007.66 1008.36 1008.78 1008.92 1008.80 1008.51 1008.17 1007.87 1007.69 1007.65 1007.72 1007.85 1007.97 1008.04 1008.02 1007.96 1007.89 1007.90 1008.04 1008.33 1008.78 1009.31 1009.85 1010.32 1010.64 1010.80 1010.83 1010.78 1010.74 1010.77 1010.94 1011.24 1011.63 1012.06 1012.44 1012.70 1012.82 1012.80 1012.68 1012.51 1012.36 1012.26 1012.24 1012.30 1012.39
1004.64 1005.43 1006.35 1007.25 1008.02 1008.53 1008.75 1008.67 1008.36 1007.93 1007.51 1007.19 1007.02 1007.01 1007.14 1007.32 1007.49 1007.59 1007.62 1007.61 1007.61 1007.69 1007.91 1008.29 1008.81 1009.40 1009.98 1010.48 1010.82 1011.00 1011.05 1011.02 1010.99 1011.04 1011.21 1011.49 1011.85 1012.23 1012.56 1012.78 1012.87 1012.84 1012.73 1012.59 1012.48 1012.41 1012.42 1012.48 1012.57
1005.11 1005.97 1006.89 1007.71 1008.32 1008.62 1008.61 1008.32 1007.85 1007.31 1006.84 1006.52 1006.39 1006.45 1006.64 1006.88 1007.10 1007.25 1007.33 1007.36 1007.41 1007.54 1007.82 1008.24 1008.80 1009.42 1010.03 1010.54 1010.92 1011.13 1011.22 1011.23 1011.25 1011.32 1011.49 1011.75 1012.06 1012.37 1012.64 1012.80 1012.87 1012.84 1012.75 1012.66 1012.59 1012.58 1012.62 1012.70 1012.79
1005.66 1006.56 1007.43 1008.14 1008.56 1008.66 1008.44 1007.98 1007.37 1006.77 1006.29 1006.00 1005.94 1006.07 1006.32 1006.62 1006.88 1007.06 1007.16 1007.22 1007.30 1007.46 1007.76 1008.21 1008.78 1009.40 1010.01 1010.54 1010.93 1011.19 1011.33 1011.41 1011.48 1011.59 1011.76 1012.00 1012.26 1012.51 1012.71 1012.83 1012.87 1012.85 1012.80 1012.76 1012.76 1012.80 1012.88 1012.98 1013.07
1006.25 1007.14 1007.93 1008.50 1008.75 1008.66 1008.28 1007.69 1007.01 1006.40 1005.95 1005.72 1005.73 1005.92 1006.23 1006.55 1006.84 1007.02 1007.13 1007.20 1007.29 1007.47 1007.77 1008.22 1008.77 1009.38 1009.98 1010.50 1010.92 1011.21 1011.40 1011.54 1011.67 1011.83 1012.02 1012.24 1012.47 1012.67 1012.82 1012.91 1012.93 1012.92 1012.91 1012.93 1012.98 1013.07 1013.18 1013.29 1013.38
1006.81 1007.66 1008.34 1008.76 1008.85 1008.62 1008.12 1007.47 1006.79 1006.21 1005.83 1005.68 1005.76 1006.00 1006.33 1006.66 1006.93 1007.11 1007.21 1007.27 1007.37 1007.55 1007.86 1008.29 1008.83 1009.41 1009.98 1010.49 1010.90 1011.22 1011.46 1011.65 1011.84 1012.04 1012.25 1012.48 1012.69 1012.87 1012.99 1013.06 1013.08 1013.09 1013.11 1013.17 1013.26 1013.37 1013.50 1013.61 1013.68
1007.30 1008.06 1008.61 1008.88 1008.84 1008.51 1007.96 1007.31 1006.68 1006.18 1005.89 1005.83 1005.96 1006.23 1006.55 1006.86 1007.10 1007.24 1007.32 1007.39 1007.50 1007.69 1008.01 1008.44 1008.96 1009.51 1010.04 1010.52 1010.92 1011.24 1011.50 1011.74 1011.96 1012.20 1012.45 1012.70 1012.91 1013.09 1013.21 1013.27 1013.31 1013.34 1013.39 1013.46 1013.56 1013.67 1013.78 1013.87 1013.92
1007.68 1008.31 1008.72 1008.85 1008.70 1008.30 1007.75 1007.14 1006.60 1006.21 1006.02 1006.04 1006.22 1006.49 1006.79 1007.05 1007.23 1007.34 1007.41 1007.48 1007.61 1007.84 1008.18 1008.62 1009.13 1009.66 1010.16 1010.60 1010.97 1011.27 1011.54 1011.78 1012.04 1012.31 1012.58 1012.85 1013.09 1013.29 1013.43 1013.51 1013.57 1013.62 1013.67 1013.74 1013.82 1013.91 1013.98 1014.03 1014.05
1007.94 1008.42 1008.67 1008.66 1008.41 1007.98 1007.45 1006.92 1006.48 1006.21 1006.12 1006.20 1006.40 1006.66 1006.92 1007.12 1007.25 1007.32 1007.38 1007.48 1007.65 1007.93 1008.31 1008.78 1009.29 1009.81 1010.27 1010.67 1011.00 1011.28 1011.53 1011.77 1012.03 1012.32 1012.62 1012.92 1013.19 1013.42 1013.59 1013.72 1013.80 1013.86 1013.91 1013.96 1014.01 1014.05 1014.07 1014.08 1014.07
1008.06 1008.38 1008.47 1008.33 1008.00 1007.54 1007.04 1006.60 1006.26 1006.10 1006.09 1006.22 1006.43 1006.66 1006.86 1007.00 1007.08 1007.14 1007.20 1007.33 1007.55 1007.89 1008.33 1008.84 1009.37 1009.87 1010.31 1010.68 1010.97 1011.21 1011.43 1011.66 1011.92 1012.21 1012.53 1012.85 1013.16 1013.43 1013.65 1013.81 1013.93 1014.01 1014.06 1014.08 1014.09 1014.08 1014.06 1014.02 1013.99
1008.08 1008.23 1008.17 1007.91 1007.51 1007.03 1006.57 1006.19 1005.95 1005.86 1005.91 1006.06 1006.26 1006.45 1006.59 1006.68 1006.72 1006.76 1006.84 1007.01 1007.28 1007.68 1008.17 1008.71 1009.26 1009.77 1010.20 1010.54 1010.81 1011.02 1011.22 1011.43 1011.68 1011.97 1012.30 1012.64 1012.98 1013.29 1013.55 1013.76 1013.91 1014.02 1014.07 1014.08 1014.06 1014.02 1013.96 1013.90 1013.87
1008.05 1008.05 1007.85 1007.48 1007.02 1006.54 1006.10 1005.77 1005.57 1005.53 1005.60 1005.75 1005.91 1006.05 1006.14 1006.18 1006.20 1006.23 1006.32 1006.52 1006.84 1007.27 1007.80 1008.37 1008.93 1009.45 1009.88 1010.22 1010.49 1010.69 1010.88 1011.09 1011.33 1011.61 1011.94 1012.29 1012.65 1012.99 1013.29 1013.55 1013.75 1013.89 1013.96 1013.99 1013.96 1013.90 1013.84 1013.78 1013.77
1008.03 1007.90 1007.60 1007.16 1006.66 1006.16 1005.73 1005.43 1005.25 1005.21 1005.26 1005.36 1005.47 1005.56 1005.59 1005.59 1005.58 1005.61 1005.71 1005.92 1006.25 1006.70 1007.23 1007.81 1008.38 1008.90 1009.35 1009.72 1010.01 1010.24 1010.45 1010.67 1010.91 1011.18 1011.50 1011.84 1012.21 1012.57 1012.91 1013.21 1013.46 1013.65 1013.77 1013.83 1013.84 1013.81 1013.76 1013.74 1013.76
1008.09 1007.89 1007.52 1007.05 1006.53 1006.04 1005.61 1005.30 1005.10 1005.01 1005.00 1005.03 1005.06 1005.07 1005.05 1005.01 1004.98 1005.00 1005.09 1005.29 1005.60 1006.02 1006.53 1007.08 1007.65 1008.19 1008.67 1009.09 1009.44 1009.73 1009.99 1010.24 1010.49 1010.76 1011.06 1011.38 1011.73 1012.09 1012.45 1012.80 1013.10 1013.36 1013.56 1013.69 1013.76 1013.79 1013.80 1013.82 1013.89
1008.29 1008.06 1007.69 1007.23 1006.73 1006.25 1005.82 1005.47 1005.22 1005.04 1004.93 1004.84 1004.78 1004.70 1004.62 1004.55 1004.49 1004.49 1004.56 1004.72 1004.99 1005.35 1005.80 1006.31 1006.86 1007.41 1007.93 1008.42 1008.86 1009.24 1009.58 1009.88 1010.15 1010.42 1010.69 1010.97 1011.29 1011.63 1012.00 1012.38 1012.75 1013.09 1013.38 1013.61 1013.78 1013.89 1013.98 1014.07 1014.18
1008.63 1008.43 1008.11 1007.71 1007.27 1006.82 1006.39 1006.00 1005.65 1005.35 1005.09 1004.87 1004.67 1004.50 1004.36 1004.24 1004.17 1004.15 1004.19 1004.31 1004.51 1004.80 1005.17 1005.62 1006.13 1006.69 1007.26 1007.83 1008.37 1008.87 1009.29 1009.66 1009.96 1010.21 1010.44 1010.68 1010.95 1011.26 1011.62 1012.03 1012.46 1012.89 1013.28 1013.62 1013.90 1014.12 1014.30 1014.45 1014.61
1009.09 1008.98 1008.76 1008.47 1008.12 1007.72 1007.28 1006.83 1006.36 1005.90 1005.47 1005.08 1004.74 1004.47 1004.26 1004.11 1004.03 1004.00 1004.02 1004.10 1004.24 1004.44 1004.73 1005.11 1005.58 1006.13 1006.75 1007.40 1008.05 1008.65 1009.17 1009.59 1009.92 1010.16 1010.35 1010.53 1010.73 1011.00 1011.35 1011.78 1012.26 1012.77 1013.27 1013.73 1014.13 1014.45 1014.71 1014.93 1015.12
1009.60 1009.61 1009.54 1009.40 1009.16 1008.82 1008.39 1007.85 1007.25 1006.62 1005.99 1005.41 1004.92 1004.54 1004.27 1004.10 1004.03 1004.02 1004.04 1004.10 1004.19 1004.33 1004.54 1004.85 1005.27 1005.82 1006.46 1007.18 1007.91 1008.60 1009.20 1009.68 1010.02 1010.24 1010.38 1010.50 1010.64 1010.86 1011.19 1011.62 1012.15 1012.74 1013.33 1013.89 1014.39 1014.81 1015.15 1015.42 1015.63
1010.06 1010.22 1010.33 1010.35 1010.24 1009.98 1009.53 1008.92 1008.17 1007.34 1006.50 1005.73 1005.09 1004.61 1004.30 1004.14 1004.10 1004.14 1004.21 1004.28 1004.36 1004.46 1004.61 1004.85 1005.23 1005.75 1006.40 1007.15 1007.93 1008.68 1009.33 1009.84 1010.19 1010.39 1010.49 1010.55 1010.64 1010.81 1011.11 1011.55 1012.11 1012.75 1013.41 1014.06 1014.64 1015.13 1015.52 1015.83 1016.07
1010.38 1010.70 1010.99 1011.18 1011.20 1011.00 1010.55 1009.85 1008.95 1007.93 1006.89 1005.94 1005.15 1004.59 1004.26 1004.13 1004.17 1004.29 1004.44 1004.57 1004.68 1004.77 1004.89 1005.09 1005.42 1005.90 1006.53 1007.27 1008.06 1008.83 1009.50 1010.02 1010.36 1010.53 1010.60 1010.61 1010.66 1010.80 1011.08 1011.51 1012.09 1012.76 1013.47 1014.16 1014.78 1015.32 1015.75 1016.08 1016.33
1010.48 1010.96 1011.42 1011.76 1011.90 1011.76 1011.29 1010.51 1009.47 1008.27 1007.06 1005.95 1005.05 1004.42 1004.09 1004.03 1004.16 1004.41 1004.67 1004.91 1005.08 1005.20 1005.31 1005.48 1005.76 1006.18 1006.76 1007.46 1008.22 1008.96 1009.62 1010.12 1010.44 1010.60 1010.64 1010.63 1010.65 1010.77 1011.04 1011.47 1012.05 1012.72 1013.44 1014.14 1014.78 1015.32 1015.76 1016.11 1016.37
1010.37 1010.98 1011.57 1012.04 1012.28 1012.17 1011.69 1010.84 1009.69 1008.36 1007.00 1005.76 1004.78 1004.12 1003.82 1003.83 1004.08 1004.45 1004.86 1005.21 1005.48 1005.65 1005.78 1005.93 1006.16 1006.52 1007.02 1007.64 1008.33 1009.02 1009.63 1010.10 1010.40 1010.54 1010.57 1010.56 1010.58 1010.70 1010.96 1011.39 1011.95 1012.61 1013.30 1013.98 1014.59 1015.11 1015.54 1015.88 1016.16
1010.10 1010.80 1011.49 1012.05 1012.34 1012.28 1011.79 1010.90 1009.67 1008.24 1006.79 1005.47 1004.44 1003.77 1003.50 1003.59 1003.94 1004.45 1004.99 1005.46 1005.82 1006.06 1006.21 1006.35 1006.53 1006.82 1007.23 1007.76 1008.36 1008.97 1009.52 1009.95 1010.22 1010.36 1010.40 1010.40 1010.44 1010.57 1010.84 1011.25 1011.79 1012.41 1013.05 1013.67 1014.23 1014.71 1015.10 1015.43 1015.72
1009.78 1010.51 1011.25 1011.85 1012.19 1012.15 1011.67 1010.77 1009.52 1008.05 1006.56 1005.21 1004.16 1003.50 1003.26 1003.40 1003.83 1004.43 1005.07 1005.63 1006.07 1006.36 1006.54 1006.67 1006.81 1007.03 1007.36 1007.79 1008.30 1008.83 1009.31 1009.70 1009.96 1010.10 1010.16 1010.19 1010.25 1010.41 1010.68 1011.08 1011.58 1012.14 1012.72 1013.27 1013.75 1014.17 1014.52 1014.82 1015.11
1009.52 1010.23 1010.97 1011.58 1011.94 1011.92 1011.48 1010.61 1009.38 1007.94 1006.47 1005.13 1004.08 1003.43 1003.20 1003.35 1003.81 1004.44 1005.12 1005.73 1006.20 1006.53 1006.72 1006.84 1006.95 1007.12 1007.38 1007.74 1008.16 1008.62 1009.04 1009.40 1009.64 1009.80 1009.89 1009.95 1010.05 1010.22 1010.50 1010.88 1011.34 1011.84 1012.35 1012.81 1013.22 1013.57 1013.86 1014.14 1014.42
1009.43 1010.08 1010.76 1011.35 1011.71 1011.73 1011.34 1010.54 1009.39 1008.03 1006.62 1005.33 1004.30 1003.65 1003.39 1003.51 1003.92 1004.51 1005.15 1005.74 1006.21 1006.53 1006.72 1006.83 1006.93 1007.07 1007.29 1007.59 1007.97 1008.37 1008.76 1009.09 1009.34 1009.51 1009.63 1009.72 1009.85 1010.04 1010.31 1010.67 1011.09 1011.54 1011.97 1012.37 1012.70 1012.99 1013.24 1013.49 1013.76
1009.57 1010.11 1010.72 1011.26 1011.61 1011.66 1011.34 1010.64 1009.62 1008.37 1007.06 1005.84 1004.84 1004.16 1003.85 1003.87 1004.17 1004.64 1005.17 1005.67 1006.07 1006.36 1006.53 1006.64 1006.73 1006.87 1007.08 1007.37 1007.73 1008.12 1008.49 1008.82 1009.07 1009.26 1009.40 1009.52 1009.67 1009.87 1010.14 1010.47 1010.86 1011.25 1011.64 1011.98 1012.27 1012.51 1012.73 1012.96 1013.22
1009.94 1010.36 1010.86 1011.33 1011.66 1011.74 1011.50 1010.93 1010.05 1008.95 1007.76 1006.62 1005.64 1004.92 1004.50 1004.38 1004.50 1004.79 1005.15 1005.51 1005.80 1006.02 1006.16 1006.26 1006.38 1006.54 1006.78 1007.09 1007.46 1007.85 1008.24 1008.57 1008.84 1009.04 1009.20 1009.34 1009.49 1009.69 1009.95 1010.27 1010.63 1011.00 1011.35 1011.67 1011.94 1012.17 1012.38 1012.60 1012.85
1010.52 1010.81 1011.19 1011.58 1011.87 1011.97 1011.82 1011.36 1010.63 1009.68 1008.61 1007.54 1006.58 1005.80 1005.25 1004.95 1004.86 1004.92 1005.07 1005.25 1005.41 1005.54 1005.64 1005.75 1005.89 1006.10 1006.39 1006.75 1007.16 1007.59 1007.99 1008.35 1008.63 1008.84 1009.00 1009.15 1009.30 1009.49 1009.74 1010.05 1010.40 1010.77 1011.12 1011.44 1011.73 1011.97 1012.20 1012.43 1012.68
1011.23 1011.39 1011.65 1011.95 1012.20 1012.31 1012.21 1011.86 1011.26 1010.44 1009.48 1008.47 1007.51 1006.66 1005.98 1005.49 1005.18 1005.01 1004.94 1004.93 1004.95 1004.99 1005.06 1005.17 1005.35 1005.62 1005.96 1006.38 1006.84 1007.31 1007.74 1008.12 1008.41 1008.63 1008.79 1008.93 1009.07 1009.26 1009.50 1009.80 1010.15 1010.53 1010.91 1011.27 1011.60 1011.89 1012.15 1012.40 1012.67
Thickness
5849 5854 5852 5839 5812 5799 5799 5811 5821 5821 5825 5834 5838 5835 5825 5815 5803 5789 5818 5832 5829 5822 5814 5809 5804 5800 5796 5792 5788 5784 5781 5779 5776 5774 5772 5769 5766 5763 5761 5759 5757 5756 5755 5754 5754 5755 5758 5760 5763
5851 5856 5845 5825 5796 5786 5796 5815 5816 5822 5830 5838 5837 5834 5824 5818 5823 5817 5822 5829 5828 5822 5814 5810 5804 5800 5796 5791 5787 5783 5780 5777 5774 5771 5769 5766 5763 5761 5758 5756 5755 5754 5752 5751 5751 5752 5754 5756 5759
5849 5851 5831 5814 5801 5795 5800 5818 5823 5831 5838 5835 5829 5829 5820 5816 5825 5821 5825 5828 5827 5821 5815 5809 5804 5799 5795 5791 5787 5782 5779 5775 5772 5769 5766 5764 5761 5758 5756 5754 5753 5752 5751 5750 5750 5750 5751 5754 5756
5847 5838 5828 5808 5800 5815 5822 5828 5833 5828 5830 5835 5829 5818 5820 5828 5829 5827 5828 5828 5823 5819 5814 5806 5802 5798 5794 5790 5786 5782 5778 5774 5770 5767 5764 5761 5759 5756 5754 5752 5751 5750 5750 5749 5749 5749 5750 5752 5753
5844 5824 5807 5799 5810 5826 5836 5840 5839 5829 5826 5830 5827 5812 5811 5826 5832 5829 5827 5826 5820 5817 5812 5805 5800 5797 5793 5789 5785 5780 5776 5773 5769 5765 5762 5759 5756 5754 5752 5750 5749 5748 5748 5748 5748 5748 5748 5749 5751
5825 5820 5792 5787 5809 5826 5838 5844 5842 5832 5830 5830 5826 5813 5811 5828 5826 5825 5825 5823 5821 5816 5811 5804 5799 5795 5791 5787 5783 5779 5775 5771 5767 5763 5760 5757 5754 5751 5749 5748 5747 5746 5746 5746 5747 5747 5747 5747 5749
5814 5805 5793 5801 5809 5818 5833 5845 5837 5831 5828 5830 5832 5814 5814 5823 5826 5826 5824 5823 5820 5816 5811 5804 5798 5794 5790 5786 5782 5777 5773 5769 5765 5762 5758 5755 5751 5748 5747 5745 5745 5744 5744 5744 5745 5745 5745 5746 5748
5824 5812 5804 5808 5808 5814 5835 5842 5841 5835 5830 5841 5838 5817 5810 5821 5829 5827 5824 5821 5818 5815 5811 5807 5801 5796 5790 5785 5780 5776 5771 5768 5764 5760 5756 5752 5749 5746 5744 5743 5742 5742 5742 5742 5742 5743 5744 5745 5746
5826 5803 5794 5804 5811 5818 5835 5835 5840 5846 5840 5838 5839 5832 5829 5832 5831 5823 5817 5815 5813 5813 5811 5809 5804 5798 5792 5786 5780 5774 5770 5766 5762 5758 5754 5751 5748 5745 5742 5741 5739 5739 5739 5739 5740 5741 5742 5743 5745
5817 5794 5799 5818 5830 5829 5833 5833 5835 5835 5829 5828 5831 5835 5836 5831 5825 5818 5813 5810 5809 5809 5810 5809 5805 5799 5793 5788 5779 5774 5770 5765 5761 5758 5754 5751 5749 5746 5742 5738 5737 5736 5736 5737 5738 5739 5740 5741 5743
5816 5806 5815 5826 5838 5837 5832 5833 5837 5827 5818 5827 5827 5829 5831 5828 5823 5819 5816 5815 5813 5813 5812 5810 5806 5801 5794 5786 5779 5774 5770 5765 5763 5761 5756 5753 5750 5745 5740 5737 5734 5734 5734 5736 5737 5738 5739 5741 5744
5813 5818 5825 5829 5838 5833 5831 5833 5832 5829 5829 5843 5843 5839 5833 5826 5822 5820 5818 5817 5816 5813 5811 5811 5807 5801 5795 5789 5782 5777 5772 5768 5765 5762 5760 5755 5752 5748 5742 5739 5736 5735 5735 5736 5737 5739 5742 5744 5745
5809 5814 5825 5831 5833 5832 5831 5829 5829 5830 5842 5848 5846 5839 5833 5829 5826 5827 5826 5823 5819 5813 5810 5809 5807 5802 5797 5791 5785 5780 5776 5773 5768 5764 5761 5757 5753 5749 5745 5742 5740 5739 5737 5737 5738 5739 5740 5742 5742
5809 5814 5820 5825 5827 5829 5824 5825 5826 5828 5841 5841 5838 5834 5834 5831 5829 5826 5825 5822 5819 5815 5811 5810 5806 5803 5798 5792 5787 5783 5778 5774 5770 5764 5761 5757 5754 5750 5746 5743 5740 5739 5738 5737 5737 5737 5736 5736 5735
5814 5804 5807 5816 5820 5824 5821 5811 5820 5833 5839 5833 5833 5833 5833 5833 5832 5828 5826 5824 5822 5818 5815 5811 5807 5804 5798 5793 5788 5784 5779 5775 5770 5765 5762 5758 5754 5750 5746 5743 5739 5738 5737 5736 5735 5734 5733 5731 5730
5801 5792 5786 5806 5816 5820 5806 5791 5819 5835 5831 5825 5827 5829 5828 5830 5832 5832 5831 5828 5825 5821 5816 5812 5808 5803 5797 5792 5787 5783 5779 5775 5769 5764 5761 5759 5755 5751 5746 5742 5738 5738 5736 5734 5731 5730 5728 5727 5727
5781 5774 5778 5793 5811 5809 5799 5791 5815 5828 5824 5819 5822 5824 5824 5825 5828 5832 5832 5830 5826 5821 5816 5810 5807 5801 5796 5791 5785 5781 5777 5773 5769 5764 5760 5758 5756 5752 5747 5741 5739 5737 5734 5731 5729 5727 5725 5722 5721
5759 5766 5769 5774 5787 5792 5784 5785 5804 5817 5816 5814 5817 5819 5821 5821 5824 5830 5831 5829 5826 5821 5816 5810 5805 5800 5794 5789 5782 5776 5773 5770 5767 5763 5759 5757 5754 5751 5747 5741 5738 5736 5731 5727 5725 5723 5722 5719 5718
5764 5761 5762 5771 5775 5772 5770 5774 5791 5806 5806 5805 5808 5812 5815 5818 5825 5827 5825 5823 5819 5815 5811 5806 5800 5796 5790 5782 5774 5768 5764 5763 5761 5760 5758 5754 5752 5749 5746 5740 5736 5734 5729 5725 5722 5719 5716 5714 5715
5757 5750 5751 5759 5762 5758 5755 5763 5782 5796 5799 5801 5803 5804 5808 5810 5812 5811 5813 5812 5810 5806 5803 5799 5795 5791 5786 5780 5774 5768 5762 5759 5757 5756 5754 5752 5748 5745 5743 5739 5734 5731 5727 5722 5719 5715 5710 5709 5710
5743 5735 5732 5734 5745 5750 5742 5746 5767 5784 5793 5798 5802 5803 5804 5803 5801 5799 5801 5801 5799 5796 5794 5791 5789 5785 5781 5776 5770 5763 5757 5752 5749 5748 5747 5747 5745 5742 5739 5736 5732 5729 5725 5718 5714 5711 5706 5702 5704
5725 5734 5730 5726 5721 5718 5724 5712 5747 5766 5774 5783 5790 5792 5794 5797 5797 5793 5792 5790 5789 5787 5787 5785 5782 5778 5774 5770 5763 5755 5748 5742 5742 5742 5741 5741 5741 5738 5735 5732 5729 5726 5722 5717 5712 5709 5705 5700 5696
5729 5731 5724 5718 5711 5706 5714 5706 5733 5758 5758 5769 5780 5786 5789 5792 5792 5788 5786 5783 5783 5782 5780 5778 5775 5771 5768 5764 5758 5752 5747 5743 5742 5740 5737 5734 5734 5733 5731 5728 5724 5721 5718 5713 5709 5706 5703 5699 5696
5732 5722 5716 5712 5703 5692 5712 5705 5718 5745 5754 5763 5775 5780 5784 5786 5786 5783 5782 5779 5775 5774 5772 5770 5766 5763 5761 5758 5754 5749 5744 5740 5736 5733 5730 5728 5727 5726 5725 5723 5720 5717 5713 5710 5706 5703 5700 5697 5695
5723 5706 5686 5682 5679 5690 5718 5711 5723 5751 5762 5766 5770 5775 5777 5778 5777 5773 5770 5767 5764 5764 5764 5762 5759 5754 5754 5753 5751 5749 5744 5739 5734 5730 5725 5722 5719 5718 5718 5717 5714 5712 5709 5707 5704 5700 5698 5695 5693
5713 5707 5681 5668 5674 5687 5700 5702 5729 5754 5763 5770 5772 5773 5772 5771 5771 5767 5765 5761 5759 5759 5758 5757 5753 5750 5749 5748 5748 5747 5742 5736 5733 5729 5724 5719 5716 5714 5714 5712 5710 5707 5705 5703 5700 5697 5696 5694 5692
5702 5705 5712 5694 5690 5685 5698 5714 5734 5743 5748 5756 5762 5763 5762 5764 5765 5763 5762 5759 5758 5756 5755 5754 5750 5746 5744 5742 5742 5740 5738 5733 5729 5726 5723 5718 5715 5713 5710 5708 5705 5703 5701 5698 5696 5694 5692 5691 5690
5708 5706 5699 5683 5667 5669 5692 5700 5689 5706 5715 5735 5742 5746 5752 5756 5756 5757 5756 5755 5757 5756 5754 5752 5749 5744 5742 5740 5737 5734 5731 5728 5725 5722 5718 5714 5712 5710 5706 5703 5701 5698 5696 5694 5691 5689 5688 5687 5686
5687 5684 5683 5680 5679 5664 5662 5671 5685 5685 5696 5709 5721 5730 5738 5741 5742 5744 5747 5750 5751 5753 5752 5748 5745 5742 5738 5736 5734 5729 5725 5723 5720 5716 5713 5710 5708 5705 5702 5700 5698 5694 5691 5689 5687 5685 5683 5682 5681
5673 5663 5660 5649 5656 5664 5657 5660 5681 5678 5685 5695 5712 5722 5730 5733 5736 5739 5739 5742 5746 5750 5749 5746 5743 5740 5737 5734 5731 5726 5722 5718 5714 5711 5709 5707 5704 5702 5699 5698 5695 5692 5689 5687 5684 5682 5680 5678 5676